OneWeb SL0040

operational
NORAD ID: 45147 Int'l Des: 2020-008 Owner: ONEWEB Country: UK Constellation: oneweb
LEOCIRCULARPOLARONEWEB_TYPE

Über OneWeb SL0040

Beschreibung wird geladen...

Live-Position

3D-Globus wird geladen...

Nächste Überflüge

Höhenverlauf

Altitude vs Time

uPlot chart will show altitude changes over time

Zweizeiliger Elementsatz

1 45147U 20008S 25304.66423944 .00000115 00000-0 29346-3 0 9997
2 45147 87.8782 81.8411 0001609 99.3392 260.7917 13.10379851277935
Epoch: 31. Okt. 2025 • Age: 19 hours

Aktueller Status

Höhe 1234.4 km
Geschwindigkeit 7.24 km/s
Subsatellitenpunkt 87.83°N, 16.4°W
Startdatum 6. Feb. 2020
Alter 5.7 years
Typ internet

Technische Details

Klassifizierung Payload
Masse 148.00 kg
Trockenmasse 140.00 kg
Gesamtmasse 148.00 kg
Länge 1.30 m
Durchmesser 1.00 m
Spannweite 5.00 m
Form Trapezoid+2 pan
Hersteller ONEWUS
Bus-Typ ARROW
Phasenstatus In Orbit
Besitzer/Staat ONEWEB/UK

Große Konstellationen

Loading constellations...